"startDT [UTC]","vpos","CH4 [ppm]","stdev(CH4) [ppm]","CO2 [ppm]","stdev(CO2) [ppm]","H2O [ppm]","stdev(H2O)","p_LGR [torr]","T_LGR [C]","mt1_LGR [us]","mt2_LGR [us]","T_ECpre [C]","T_EC1 [C]","T_EC2 [C]","p_inlet [hPa]","p_in [hPa]","p_out [hPa]","T_inlet [C]","RH_inlet [%]","dwpt_inlet [C]","T_vent [C]","RH_vent [%]","dwpt_vent [C]","flow_vent [l min-1]","flow_inlet [l min-1]","dwpt_sample [C]","T_room [C]"
2012-08-16 00:00:00,0.0,,,,,,,,,,,0.85,-26.64,-1.81,-47,545,-923,26.5,28.3,6.7,26.5,1.5,-29.5,5.73,2.40,-27.8,30.3
2012-08-16 00:01:00,0.0,,,,,,,,,,,0.87,-26.62,-0.88,-47,545,-923,26.5,28.3,6.7,26.5,1.5,-29.7,5.73,2.38,-27.7,30.4
2012-08-16 00:02:00,0.0,,,,,,,,,,,0.88,-26.59,0.00,-47,545,-923,26.5,28.3,6.7,26.5,1.5,-29.7,5.73,2.39,-27.7,30.4
2012-08-16 00:03:00,0.0,,,,,,,,,,,0.91,-26.57,0.84,-47,545,-923,26.5,28.3,6.7,26.5,1.5,-29.7,5.73,2.41,-27.7,30.4
2012-08-16 00:04:00,0.0,,,,,,,,,,,0.92,-26.55,1.62,-47,545,-923,26.5,28.2,6.6,26.5,1.5,-29.8,5.73,2.40,-27.7,30.4
2012-08-16 00:05:00,0.0,,,,,,,,,,,0.93,-26.53,2.34,-47,545,-923,26.5,28.2,6.6,26.5,1.5,-30.0,5.73,2.39,-27.7,30.4
2012-08-16 00:06:00,0.0,,,,,,,,,,,0.95,-26.51,2.91,-47,545,-923,26.5,28.2,6.6,26.5,1.5,-29.9,5.73,2.39,-27.7,30.4
2012-08-16 00:07:00,0.0,,,,,,,,,,,0.95,-26.49,3.20,-47,546,-923,26.5,28.3,6.7,26.5,1.5,-30.0,5.73,2.41,-27.6,30.4
2012-08-16 00:08:00,0.0,,,,,,,,,,,0.95,-26.47,3.38,-47,545,-923,26.5,28.4,6.7,26.5,1.5,-30.0,5.73,2.41,-27.6,30.4
2012-08-16 00:09:00,0.0,,,,,,,,,,,0.92,-26.45,3.70,-47,545,-923,26.6,28.5,6.8,26.5,1.4,-30.1,5.73,2.39,-27.6,30.4
2012-08-16 00:10:00,0.0,,,,,,,,,,,0.89,-26.43,4.19,-47,545,-923,26.6,28.4,6.7,26.5,1.4,-30.1,5.73,2.38,-27.6,30.4
2012-08-16 00:11:00,0.0,,,,,,,,,,,0.89,-26.43,4.78,-47,545,-923,26.6,27.9,6.5,26.5,1.4,-30.1,5.73,2.41,-27.6,30.3
2012-08-16 00:12:00,0.0,,,,,,,,,,,0.90,-26.41,5.35,-47,546,-923,26.6,27.6,6.3,26.5,1.4,-30.1,5.73,2.41,-27.6,30.4
2012-08-16 00:13:00,0.0,,,,,,,,,,,0.92,-26.40,5.88,-47,545,-923,26.6,27.5,6.3,26.5,1.4,-30.1,5.73,2.39,-27.6,30.4
2012-08-16 00:14:00,0.0,,,,,,,,,,,0.91,-26.38,6.38,-47,545,-923,26.6,27.4,6.2,26.5,1.4,-30.1,5.73,2.39,-27.6,30.4
2012-08-16 00:15:00,0.0,,,,,,,,,,,0.92,-26.37,6.85,-47,546,-923,26.6,27.3,6.2,26.5,1.4,-30.2,5.73,2.40,-27.5,30.4
2012-08-16 00:16:00,0.0,,,,,,,,,,,0.94,-26.35,7.30,-47,545,-923,26.5,27.5,6.3,26.5,1.4,-30.1,5.73,2.41,-27.6,30.5
2012-08-16 00:17:00,0.0,,,,,,,,,,,0.94,-26.35,7.74,-47,545,-923,26.5,27.7,6.4,26.5,1.4,-30.1,5.73,2.39,-27.6,30.4
2012-08-16 00:18:00,0.0,,,,,,,,,,,0.95,-26.34,8.17,-47,545,-923,26.6,27.6,6.3,26.5,1.4,-30.1,5.73,2.38,-27.5,30.5
2012-08-16 00:19:00,0.0,,,,,,,,,,,0.95,-26.32,8.58,-47,545,-923,26.6,27.2,6.1,26.5,1.4,-30.2,5.73,2.40,-27.5,30.5
2012-08-16 00:20:00,0.0,,,,,,,,,,,0.95,-26.31,8.97,-47,546,-923,26.5,27.4,6.2,26.5,1.4,-30.1,5.73,2.41,-27.5,30.5
2012-08-16 00:21:00,0.0,,,,,,,,,,,0.94,-26.30,9.35,-47,546,-923,26.6,27.4,6.2,26.5,1.4,-30.1,5.73,2.38,-27.5,30.5
2012-08-16 00:22:00,0.0,,,,,,,,,,,0.92,-26.29,9.72,-47,545,-923,26.5,27.1,6.1,26.5,1.4,-30.1,5.73,2.38,-27.5,30.5
2012-08-16 00:23:00,0.0,,,,,,,,,,,0.90,-26.28,10.09,-47,546,-923,26.5,27.0,6.0,26.5,1.4,-30.1,5.73,2.40,-27.6,30.5
2012-08-16 00:24:00,0.0,,,,,,,,,,,0.90,-26.27,10.44,-47,545,-923,26.5,27.1,6.1,26.5,1.4,-30.1,5.73,2.41,-27.5,30.5
2012-08-16 00:25:00,0.0,,,,,,,,,,,0.90,-26.26,10.79,-47,545,-923,26.5,27.3,6.2,26.5,1.4,-30.1,5.73,2.38,-27.5,30.5
2012-08-16 00:26:00,0.0,,,,,,,,,,,0.91,-26.25,11.12,-47,545,-923,26.5,27.5,6.3,26.5,1.4,-30.1,5.73,2.38,-27.5,30.5
2012-08-16 00:27:00,0.0,,,,,,,,,,,0.90,-26.25,11.45,-47,546,-923,26.6,27.6,6.3,26.5,1.4,-30.1,5.73,2.41,-27.5,30.5
2012-08-16 00:28:00,0.0,,,,,,,,,,,0.91,-26.24,11.77,-47,545,-923,26.6,27.6,6.3,26.5,1.4,-30.1,5.73,2.40,-27.5,30.5
2012-08-16 00:29:00,0.0,,,,,,,,,,,0.94,-26.23,12.07,-47,545,-923,26.5,27.5,6.3,26.5,1.4,-30.1,5.73,2.38,-27.5,30.4
2012-08-16 00:30:00,0.0,,,,,,,,,,,0.92,-26.23,12.36,-47,546,-923,26.6,27.6,6.3,26.5,1.4,-30.1,5.73,2.39,-27.5,30.5
2012-08-16 00:31:00,0.0,,,,,,,,,,,0.93,-26.22,12.64,-47,545,-923,26.5,27.6,6.3,26.5,1.4,-30.1,5.73,2.41,-27.5,30.4
2012-08-16 00:32:00,0.0,,,,,,,,,,,0.94,-26.21,12.91,-47,545,-923,26.5,27.6,6.4,26.5,1.4,-30.1,5.73,2.40,-27.5,30.5
2012-08-16 00:33:00,0.0,,,,,,,,,,,0.93,-26.20,13.17,-47,545,-923,26.5,27.7,6.4,26.5,1.4,-30.2,5.73,2.38,-27.5,30.5
2012-08-16 00:34:00,0.0,,,,,,,,,,,0.94,-26.20,13.42,-47,545,-923,26.6,27.6,6.3,26.5,1.4,-30.1,5.73,2.39,-27.5,30.5
2012-08-16 00:35:00,0.0,,,,,,,,,,,0.95,-26.19,13.65,-47,546,-923,26.5,27.5,6.3,26.5,1.4,-30.1,5.73,2.41,-27.5,30.4
2012-08-16 00:36:00,0.0,1.9071,0.0007,384.92,0.31,80.2,25.6,138.04,31.89,24.66,36.55,0.95,-26.19,13.88,-47,546,-923,26.6,27.6,6.3,26.5,1.4,-30.2,5.73,2.39,-27.4,30.4
2012-08-16 00:37:00,0.0,1.9072,0.0009,384.75,0.31,88.1,30.3,138.04,31.89,24.66,36.54,0.95,-26.18,14.10,-47,546,-923,26.6,27.6,6.3,26.5,1.4,-30.1,5.73,2.38,-27.5,30.4
2012-08-16 00:38:00,0.0,1.9073,0.0010,384.48,0.36,77.4,35.9,138.04,31.89,24.66,36.56,0.95,-26.18,14.31,-47,545,-923,26.6,27.7,6.4,26.5,1.4,-30.1,5.73,2.40,-27.5,30.5
2012-08-16 00:39:00,0.0,,,,,,,,,,,0.94,-26.17,14.51,-47,546,-923,26.6,27.8,6.4,26.5,1.4,-30.1,5.73,2.41,-27.5,30.4
2012-08-16 00:40:00,0.0,,,,,,,,,,,0.94,-26.17,14.70,-47,546,-923,26.6,27.8,6.4,26.5,1.4,-30.1,5.73,2.39,-27.5,30.4
2012-08-16 00:41:00,0.0,,,,,,,,,,,0.93,-26.16,14.89,-47,546,-923,26.6,27.8,6.4,26.5,1.4,-30.2,5.73,2.38,-27.5,30.4
2012-08-16 00:42:00,0.0,,,,,,,,,,,0.91,-26.16,15.06,-47,546,-923,26.6,27.9,6.5,26.5,1.4,-30.1,5.73,2.40,-27.5,30.5
2012-08-16 00:43:00,0.0,,,,,,,,,,,0.92,-26.15,15.23,-47,546,-923,26.6,27.9,6.5,26.5,1.4,-30.2,5.73,2.41,-27.5,30.5
2012-08-16 00:44:00,0.0,,,,,,,,,,,0.92,-26.14,15.40,-47,546,-923,26.6,27.9,6.5,26.5,1.4,-30.1,5.73,2.38,-27.5,30.5
2012-08-16 00:45:00,0.0,,,,,,,,,,,0.93,-26.14,15.55,-47,546,-923,26.6,27.8,6.5,26.5,1.4,-30.1,5.73,2.38,-27.5,30.5
2012-08-16 00:46:00,0.0,,,,,,,,,,,0.92,-26.14,15.69,-47,546,-923,26.6,27.8,6.4,26.5,1.4,-30.1,5.73,2.41,-27.5,30.5
2012-08-16 00:47:00,0.0,,,,,,,,,,,0.94,-26.14,15.84,-47,545,-923,26.6,27.9,6.5,26.5,1.4,-30.1,5.73,2.41,-27.5,30.5
2012-08-16 00:48:00,0.0,,,,,,,,,,,0.92,-26.13,15.97,-47,546,-923,26.6,28.0,6.5,26.5,1.4,-30.1,5.73,2.38,-27.5,30.6
2012-08-16 00:49:00,0.0,,,,,,,,,,,0.94,-26.12,16.10,-47,546,-923,26.6,28.0,6.6,26.5,1.4,-30.1,5.73,2.39,-27.5,30.5
2012-08-16 00:50:00,0.0,,,,,,,,,,,0.94,-26.12,16.22,-47,546,-923,26.6,28.0,6.6,26.5,1.4,-30.1,5.73,2.41,-27.5,30.5
2012-08-16 00:51:00,0.0,,,,,,,,,,,0.92,-26.11,16.34,-47,546,-923,26.5,27.9,6.5,26.5,1.4,-30.1,5.73,2.40,-27.5,30.5
2012-08-16 00:52:00,0.0,,,,,,,,,,,0.92,-26.11,16.46,-47,546,-923,26.6,27.8,6.5,26.5,1.4,-30.1,5.73,2.38,-27.5,30.5
2012-08-16 00:53:00,0.0,,,,,,,,,,,0.92,-26.11,16.57,-47,546,-923,26.6,27.9,6.5,26.5,1.4,-30.2,5.73,2.40,-27.5,30.6
2012-08-16 00:54:00,0.0,,,,,,,,,,,0.93,-26.11,16.67,-47,546,-923,26.6,27.9,6.5,26.5,1.4,-30.1,5.73,2.41,-27.5,30.5
2012-08-16 00:55:00,0.0,,,,,,,,,,,0.92,-26.11,16.77,-47,546,-923,26.5,28.0,6.5,26.5,1.4,-30.2,5.73,2.39,-27.5,30.5
2012-08-16 00:56:00,0.0,,,,,,,,,,,0.94,-26.10,16.86,-47,546,-923,26.5,27.8,6.4,26.5,1.4,-30.1,5.73,2.38,-27.5,30.5
2012-08-16 00:57:00,0.0,,,,,,,,,,,0.94,-26.10,16.95,-47,545,-923,26.6,27.7,6.4,26.5,1.4,-30.1,5.73,2.41,-27.4,30.5
2012-08-16 00:58:00,0.0,,,,,,,,,,,0.94,-26.09,17.04,-47,546,-923,26.6,27.8,6.5,26.5,1.4,-30.1,5.73,2.41,-27.4,30.5
2012-08-16 00:59:00,0.0,,,,,,,,,,,0.94,-26.09,17.13,-47,546,-923,26.6,27.7,6.4,26.5,1.4,-30.1,5.73,2.38,-27.4,30.5
2012-08-16 01:00:00,0.0,,,,,,,,,,,0.95,-26.09,17.21,-47,546,-923,26.6,27.6,6.4,26.5,1.4,-30.1,5.73,2.38,-27.4,30.5
2012-08-16 01:01:00,0.0,,,,,,,,,,,0.95,-26.08,17.28,-47,546,-923,26.6,27.6,6.3,26.5,1.4,-30.1,5.73,2.41,-27.4,30.5
2012-08-16 01:02:00,0.0,,,,,,,,,,,0.95,-26.08,17.36,-47,546,-923,26.6,27.6,6.3,26.5,1.4,-30.2,5.73,2.40,-27.4,30.5
2012-08-16 01:03:00,0.0,,,,,,,,,,,0.95,-26.08,17.43,-47,546,-923,26.6,27.6,6.4,26.5,1.4,-30.1,5.73,2.38,-27.4,30.5
2012-08-16 01:04:00,0.0,,,,,,,,,,,0.95,-26.07,17.50,-47,546,-923,26.6,27.7,6.4,26.5,1.4,-30.1,5.73,2.39,-27.4,30.5
2012-08-16 01:05:00,0.0,,,,,,,,,,,0.92,-26.07,17.56,-47,546,-923,26.6,27.7,6.4,26.6,1.4,-30.1,5.73,2.41,-27.4,30.5
2012-08-16 01:06:00,0.0,,,,,,,,,,,0.94,-26.07,17.62,-47,546,-923,26.6,27.7,6.4,26.5,1.4,-30.1,5.73,2.39,-27.4,30.5
2012-08-16 01:07:00,0.0,,,,,,,,,,,0.93,-26.07,17.68,-47,546,-923,26.6,27.8,6.4,26.5,1.4,-30.1,5.73,2.38,-27.4,30.5
2012-08-16 01:08:00,0.0,,,,,,,,,,,0.92,-26.06,17.75,-47,546,-923,26.6,27.9,6.5,26.5,1.4,-30.1,5.73,2.40,-27.4,30.5
2012-08-16 01:09:00,0.0,,,,,,,,,,,0.93,-26.06,17.80,-47,546,-923,26.6,27.9,6.5,26.5,1.4,-30.1,5.73,2.41,-27.4,30.5
2012-08-16 01:10:00,0.0,,,,,,,,,,,0.90,-26.06,17.86,-47,546,-923,26.6,27.8,6.4,26.5,1.4,-30.2,5.73,2.38,-27.4,30.5
2012-08-16 01:11:00,0.0,,,,,,,,,,,0.92,-26.06,17.90,-47,546,-923,26.6,27.8,6.5,26.5,1.4,-30.3,5.73,2.38,-27.4,30.5
2012-08-16 01:12:00,0.0,,,,,,,,,,,0.93,-26.05,17.96,-47,546,-923,26.6,27.9,6.5,26.6,1.4,-30.3,5.73,2.41,-27.4,30.5
2012-08-16 01:13:00,0.0,,,,,,,,,,,0.92,-26.05,18.00,-47,546,-923,26.6,28.0,6.6,26.6,1.4,-30.3,5.73,2.41,-27.4,30.5
2012-08-16 01:14:00,0.0,,,,,,,,,,,0.93,-26.05,18.05,-47,546,-923,26.6,27.8,6.5,26.6,1.4,-30.3,5.73,2.38,-27.4,30.5
2012-08-16 01:15:00,0.0,,,,,,,,,,,0.92,-26.05,18.08,-47,546,-923,26.6,27.8,6.5,26.6,1.4,-30.3,5.73,2.39,-27.4,30.4
2012-08-16 01:16:00,0.0,,,,,,,,,,,0.94,-26.05,18.13,-47,546,-923,26.6,27.8,6.4,26.5,1.4,-30.3,5.73,2.41,-27.4,30.5
2012-08-16 01:17:00,0.0,,,,,,,,,,,0.93,-26.04,18.17,-47,546,-923,26.6,27.8,6.4,26.5,1.4,-30.3,5.73,2.40,-27.4,30.4
2012-08-16 01:18:00,0.0,,,,,,,,,,,0.93,-26.04,18.20,-47,546,-923,26.6,27.7,6.4,26.5,1.4,-30.3,5.73,2.38,-27.4,30.5
2012-08-16 01:19:00,0.0,,,,,,,,,,,0.94,-26.04,18.24,-47,546,-923,26.6,27.7,6.4,26.5,1.4,-30.3,5.73,2.39,-27.4,30.5
2012-08-16 01:20:00,0.0,,,,,,,,,,,0.93,-26.04,18.27,-47,546,-923,26.6,27.7,6.4,26.5,1.4,-30.3,5.73,2.41,-27.4,30.5
2012-08-16 01:21:00,0.0,,,,,,,,,,,0.93,-26.04,18.31,-47,546,-923,26.6,27.8,6.4,26.5,1.4,-30.3,5.73,2.39,-27.4,30.5
2012-08-16 01:22:00,0.0,,,,,,,,,,,0.94,-26.04,18.34,-47,546,-923,26.6,27.8,6.4,26.5,1.4,-30.3,5.73,2.38,-27.4,30.5
2012-08-16 01:23:00,0.0,,,,,,,,,,,0.94,-26.04,18.36,-47,546,-923,26.6,27.7,6.4,26.5,1.4,-30.3,5.73,2.40,-27.4,30.5
2012-08-16 01:24:00,0.0,,,,,,,,,,,0.94,-26.04,18.40,-47,546,-923,26.6,27.9,6.5,26.5,1.4,-30.3,5.73,2.41,-27.4,30.5
2012-08-16 01:25:00,0.0,,,,,,,,,,,0.94,-26.04,18.42,-47,546,-923,26.6,27.8,6.5,26.5,1.4,-30.3,5.73,2.38,-27.4,30.6
2012-08-16 01:26:00,0.0,,,,,,,,,,,0.94,-26.04,18.44,-47,546,-923,26.6,27.8,6.4,26.5,1.4,-30.3,5.73,2.38,-27.4,30.5
2012-08-16 01:27:00,0.0,,,,,,,,,,,0.95,-26.04,18.47,-47,546,-923,26.6,27.7,6.4,26.6,1.4,-30.3,5.73,2.41,-27.4,30.5
2012-08-16 01:28:00,0.0,,,,,,,,,,,0.94,-26.04,18.49,-47,546,-923,26.6,27.7,6.4,26.5,1.4,-30.3,5.73,2.39,-27.4,30.5
2012-08-16 01:29:00,0.0,,,,,,,,,,,0.95,-26.04,18.52,-47,546,-923,26.6,27.8,6.5,26.5,1.4,-30.3,5.73,2.38,-27.4,30.5
2012-08-16 01:30:00,0.0,,,,,,,,,,,0.95,-26.03,18.54,-47,546,-923,26.6,27.9,6.5,26.6,1.4,-30.3,5.73,2.40,-27.4,30.5
2012-08-16 01:31:00,0.0,,,,,,,,,,,0.95,-26.03,18.56,-47,546,-923,26.6,27.9,6.5,26.5,1.4,-30.3,5.73,2.41,-27.4,30.5
2012-08-16 01:32:00,0.0,,,,,,,,,,,0.94,-26.03,18.58,-47,546,-923,26.6,28.1,6.6,26.5,1.4,-30.3,5.73,2.38,-27.4,30.5
2012-08-16 01:33:00,0.0,,,,,,,,,,,0.95,-26.03,18.60,-47,546,-923,26.6,28.2,6.7,26.6,1.4,-30.3,5.73,2.38,-27.4,30.5
2012-08-16 01:34:00,0.0,,,,,,,,,,,0.94,-26.02,18.62,-47,546,-923,26.6,28.2,6.7,26.6,1.4,-30.2,5.73,2.41,-27.4,30.5
2012-08-16 01:35:00,0.0,,,,,,,,,,,0.92,-26.02,18.64,-47,546,-923,26.6,28.2,6.7,26.5,1.4,-30.3,5.73,2.40,-27.3,30.5
2012-08-16 01:36:00,0.0,1.9071,0.0007,384.92,0.31,80.2,25.6,138.04,31.89,24.66,36.55,0.93,-26.02,18.66,-47,546,-923,26.6,28.2,6.7,26.6,1.4,-30.3,5.73,2.38,-27.3,30.6
2012-08-16 01:37:00,0.0,1.9072,0.0009,384.75,0.31,88.1,30.3,138.04,31.89,24.66,36.54,0.94,-26.02,18.68,-47,546,-923,26.6,28.2,6.7,26.5,1.4,-30.3,5.73,2.39,-27.4,30.6
2012-08-16 01:38:00,0.0,1.9073,0.0010,384.48,0.36,77.4,35.9,138.04,31.89,24.66,36.56,0.94,-26.02,18.69,-47,546,-923,26.6,28.1,6.6,26.6,1.4,-30.3,5.73,2.41,-27.4,30.5
2012-08-16 01:39:00,0.0,,,,,,,,,,,0.90,-26.02,18.71,-47,546,-923,26.6,28.1,6.6,26.5,1.4,-30.3,5.73,2.39,-27.4,30.5
2012-08-16 01:40:00,0.0,,,,,,,,,,,0.92,-26.02,18.72,-47,546,-923,26.6,28.2,6.7,26.5,1.4,-30.3,5.73,2.38,-27.4,30.5
2012-08-16 01:41:00,0.0,,,,,,,,,,,0.96,-26.01,18.70,-47,546,-923,26.6,28.3,6.7,26.5,1.4,-30.3,5.73,2.40,-27.3,30.5
2012-08-16 01:42:00,0.0,,,,,,,,,,,1.13,-26.01,17.55,-47,546,-923,26.6,28.4,6.8,26.6,1.4,-30.3,5.73,2.41,-27.3,30.5
2012-08-16 01:43:00,0.0,,,,,,,,,,,1.05,-26.01,15.35,-47,546,-923,26.6,28.5,6.9,26.6,1.4,-30.3,5.73,2.39,-27.4,30.5
2012-08-16 01:44:00,0.0,,,,,,,,,,,1.01,-26.04,12.97,-47,546,-923,26.6,28.6,6.9,26.6,1.4,-30.3,5.73,2.38,-27.4,30.5
2012-08-16 01:45:00,0.0,,,,,,,,,,,0.99,-26.10,10.60,-47,546,-923,26.6,28.5,6.8,26.5,1.4,-30.3,5.73,2.39,-27.4,30.5
2012-08-16 01:46:00,0.0,,,,,,,,,,,0.98,-26.12,8.30,-47,546,-923,26.6,28.4,6.8,26.5,1.4,-30.3,5.73,2.41,-27.4,30.5
2012-08-16 01:47:00,0.0,,,,,,,,,,,1.04,-26.13,6.11,-47,546,-923,26.6,28.4,6.8,26.5,1.4,-30.3,5.73,2.40,-27.4,30.4
2012-08-16 01:48:00,0.0,,,,,,,,,,,1.08,-26.14,4.03,-47,546,-923,26.6,28.4,6.7,26.5,1.4,-30.3,5.73,2.38,-27.4,30.4
2012-08-16 01:49:00,0.0,,,,,,,,,,,0.98,-26.14,2.05,-47,546,-923,26.6,28.5,6.8,26.5,1.4,-30.3,5.73,2.38,-27.4,30.4
2012-08-16 01:50:00,0.0,,,,,,,,,,,1.06,-26.14,0.18,-47,546,-923,26.6,28.6,6.9,26.5,1.4,-30.3,5.73,2.40,-27.4,30.4
2012-08-16 01:51:00,0.0,,,,,,,,,,,1.08,-26.14,-1.58,-47,546,-923,26.5,28.8,6.9,26.5,1.4,-30.3,5.73,2.41,-27.4,30.4
2012-08-16 01:52:00,0.0,,,,,,,,,,,0.97,-26.14,-3.18,-47,546,-923,26.6,28.9,7.0,26.5,1.4,-30.4,5.73,2.39,-27.4,30.4
2012-08-16 01:53:00,0.0,,,,,,,,,,,1.05,-26.15,-4.33,-47,546,-923,26.5,29.0,7.0,26.5,1.4,-30.3,5.73,2.38,-27.4,30.3
2012-08-16 01:54:00,0.0,,,,,,,,,,,1.08,-26.15,-5.52,-47,546,-923,26.5,28.8,7.0,26.5,1.4,-30.3,5.73,2.38,-27.4,30.3
2012-08-16 01:55:00,0.0,,,,,,,,,,,0.98,-26.15,-6.82,-47,546,-923,26.6,28.7,6.9,26.5,1.4,-30.3,5.73,2.40,-27.4,30.3
2012-08-16 01:56:00,0.0,,,,,,,,,,,1.03,-26.15,-8.12,-47,546,-923,26.5,28.7,6.9,26.5,1.4,-30.4,5.73,2.40,-27.4,30.3
2012-08-16 01:57:00,0.0,,,,,,,,,,,1.08,-26.15,-9.25,-47,546,-923,26.5,28.6,6.8,26.5,1.4,-30.3,5.73,2.39,-27.4,30.3
2012-08-16 01:58:00,0.0,,,,,,,,,,,1.01,-26.16,-10.33,-47,546,-923,26.5,28.6,6.8,26.5,1.4,-30.3,5.73,2.37,-27.4,30.3
2012-08-16 01:59:00,0.0,,,,,,,,,,,0.99,-26.16,-11.40,-47,546,-923,26.5,28.6,6.8,26.5,1.4,-30.4,5.73,2.38,-27.4,30.3
2012-08-16 02:00:00,0.0,,,,,,,,,,,1.07,-26.17,-12.43,-47,546,-923,26.5,28.6,6.8,26.5,1.4,-30.3,5.73,2.40,-27.4,30.3
2012-08-16 02:01:00,0.0,,,,,,,,,,,1.04,-26.17,-13.45,-47,546,-923,26.5,28.6,6.8,26.5,1.4,-30.3,5.73,2.40,-27.4,30.2
2012-08-16 02:02:00,0.0,,,,,,,,,,,0.97,-26.18,-14.43,-47,546,-923,26.5,28.6,6.8,26.5,1.4,-30.4,5.73,2.38,-27.4,30.3
2012-08-16 02:03:00,0.0,,,,,,,,,,,1.01,-26.19,-15.34,-47,546,-923,26.5,28.6,6.8,26.5,1.4,-30.3,5.73,2.37,-27.4,30.2
2012-08-16 02:04:00,0.0,,,,,,,,,,,1.07,-26.19,-16.19,-47,546,-923,26.5,28.6,6.9,26.5,1.4,-30.4,5.73,2.38,-27.4,30.3
2012-08-16 02:05:00,0.0,,,,,,,,,,,1.02,-26.20,-16.96,-47,546,-923,26.5,28.6,6.8,26.5,1.4,-30.3,5.73,2.40,-27.4,30.3
2012-08-16 02:06:00,0.0,,,,,,,,,,,0.96,-26.21,-17.65,-47,546,-923,26.5,28.6,6.8,26.5,1.4,-30.3,5.73,2.40,-27.4,30.3
2012-08-16 02:07:00,0.0,,,,,,,,,,,1.01,-26.22,-18.37,-47,546,-923,26.5,28.6,6.8,26.5,1.4,-30.3,5.73,2.38,-27.4,30.2
2012-08-16 02:08:00,0.0,,,,,,,,,,,1.09,-26.23,-19.04,-47,546,-923,26.5,28.6,6.8,26.5,1.4,-30.5,5.73,2.37,-27.4,30.3
2012-08-16 02:09:00,0.0,,,,,,,,,,,1.00,-26.24,-19.68,-47,546,-923,26.5,28.7,6.9,26.5,1.4,-30.6,5.73,2.38,-27.4,30.3
2012-08-16 02:10:00,0.0,,,,,,,,,,,0.97,-26.25,-20.29,-47,546,-923,26.5,28.7,6.9,26.5,1.4,-30.5,5.73,2.39,-27.4,30.2
2012-08-16 02:11:00,0.0,,,,,,,,,,,1.04,-26.26,-20.85,-47,546,-923,26.5,28.7,6.9,26.5,1.4,-30.5,5.73,2.41,-27.5,30.1
2012-08-16 02:12:00,0.0,,,,,,,,,,,1.07,-26.27,-21.38,-47,546,-923,26.5,28.6,6.8,26.5,1.4,-30.6,5.73,2.39,-27.5,30.2
2012-08-16 02:13:00,0.0,,,,,,,,,,,0.99,-26.29,-21.88,-47,546,-923,26.5,28.5,6.8,26.4,1.4,-30.6,5.73,2.38,-27.5,30.2
2012-08-16 02:14:00,0.0,,,,,,,,,,,1.12,-44.64,-40.84,-47,546,-923,26.5,28.5,6.8,26.4,1.4,-30.5,5.42,2.43,-31.6,30.2
2012-08-16 02:15:00,0.0,,,,,,,,,,,1.01,-26.31,-22.77,-47,546,-923,26.5,28.5,6.8,26.4,1.4,-30.6,5.73,2.38,-27.5,30.2
2012-08-16 02:16:00,0.0,,,,,,,,,,,1.07,-26.32,-23.18,-47,545,-923,26.5,28.5,6.7,26.4,1.4,-30.6,5.73,2.40,-27.5,30.1
2012-08-16 02:17:00,0.0,,,,,,,,,,,1.01,-26.34,-23.57,-47,546,-923,26.5,28.4,6.7,26.4,1.4,-30.6,5.73,2.41,-27.5,30.1
2012-08-16 02:18:00,0.0,,,,,,,,,,,0.96,-26.35,-23.94,-47,546,-923,26.5,28.4,6.7,26.4,1.4,-30.6,5.73,2.39,-27.5,30.1
2012-08-16 02:19:00,0.0,,,,,,,,,,,1.02,-26.36,-24.29,-47,546,-923,26.5,28.6,6.8,26.4,1.4,-30.6,5.73,2.38,-27.5,30.2
2012-08-16 02:20:00,0.0,,,,,,,,,,,1.07,-26.38,-24.63,-47,545,-923,26.5,28.8,6.9,26.4,1.4,-30.7,5.73,2.38,-27.5,30.1
2012-08-16 02:21:00,0.0,,,,,,,,,,,0.99,-26.39,-24.93,-47,545,-923,26.5,29.0,7.0,26.4,1.4,-30.8,5.73,2.39,-27.5,30.1
2012-08-16 02:22:00,0.0,,,,,,,,,,,0.96,-26.40,-25.22,-47,546,-923,26.5,29.1,7.0,26.4,1.4,-30.7,5.73,2.40,-27.5,30.2
2012-08-16 02:23:00,0.0,,,,,,,,,,,1.00,-26.41,-25.49,-47,545,-923,26.5,29.1,7.0,26.4,1.4,-30.8,5.73,2.39,-27.5,30.3
2012-08-16 02:24:00,0.0,,,,,,,,,,,1.05,-26.42,-25.75,-47,545,-923,26.5,28.8,6.9,26.4,1.4,-30.8,5.73,2.39,-27.5,30.2
2012-08-16 02:25:00,0.0,,,,,,,,,,,1.04,-26.43,-25.99,-47,546,-923,26.5,28.7,6.8,26.4,1.4,-30.8,5.73,2.38,-27.5,30.2
2012-08-16 02:26:00,0.0,,,,,,,,,,,0.97,-26.44,-26.21,-47,545,-923,26.5,28.6,6.8,26.4,1.4,-30.8,5.73,2.38,-27.5,30.2
2012-08-16 02:27:00,0.0,,,,,,,,,,,0.98,-26.45,-26.42,-47,545,-923,26.5,28.6,6.8,26.4,1.4,-30.8,5.73,2.40,-27.5,30.2
2012-08-16 02:28:00,0.0,,,,,,,,,,,0.98,-26.47,-26.31,-47,545,-923,26.5,28.6,6.8,26.4,1.4,-30.8,5.73,2.40,-27.5,30.2
2012-08-16 02:29:00,0.0,,,,,,,,,,,1.06,-26.48,-26.22,-47,546,-923,26.5,28.8,6.9,26.4,1.4,-30.8,5.73,2.39,-27.5,30.2
2012-08-16 02:30:00,0.0,,,,,,,,,,,1.04,-26.48,-26.38,-47,546,-923,26.5,29.0,7.0,26.4,1.4,-30.8,5.73,2.38,-27.5,30.2
2012-08-16 02:31:00,0.0,,,,,,,,,,,0.91,-26.49,-26.45,-47,546,-923,26.5,29.2,7.1,26.4,1.4,-30.8,5.73,2.38,-27.5,30.3
2012-08-16 02:32:00,0.0,,,,,,,,,,,0.99,-26.51,-26.23,-47,545,-923,26.5,29.0,7.0,26.4,1.4,-30.8,5.73,2.39,-27.5,30.2
2012-08-16 02:33:00,0.0,,,,,,,,,,,1.03,-26.52,-26.34,-47,546,-923,26.5,28.7,6.8,26.4,1.4,-30.8,5.73,2.40,-27.5,30.1
2012-08-16 02:34:00,0.0,,,,,,,,,,,1.05,-26.52,-26.52,-47,546,-923,26.5,28.6,6.8,26.4,1.4,-30.8,5.73,2.40,-27.4,30.2
2012-08-16 02:35:00,0.0,,,,,,,,,,,0.96,-26.54,-26.31,-47,546,-923,26.5,28.7,6.8,26.4,1.4,-30.8,5.73,2.38,-27.4,30.2
2012-08-16 02:36:00,0.0,1.9071,0.0007,384.92,0.31,80.2,25.6,138.04,31.89,24.66,36.55,0.98,-26.55,-26.31,-47,546,-923,26.5,28.7,6.8,26.4,1.4,-30.8,5.73,2.37,-27.4,30.2
2012-08-16 02:37:00,0.0,1.9072,0.0009,384.75,0.31,88.1,30.3,138.04,31.89,24.66,36.54,0.96,-26.55,-26.48,-47,546,-923,26.5,28.6,6.8,26.4,1.4,-30.8,5.73,2.39,-27.4,30.3
2012-08-16 02:38:00,0.0,1.9073,0.0010,384.48,0.36,77.4,35.9,138.04,31.89,24.66,36.56,0.92,-26.56,-26.48,-47,545,-923,26.5,28.5,6.7,26.4,1.3,-31.0,5.73,2.40,-27.4,30.2
2012-08-16 02:39:00,0.0,,,,,,,,,,,1.03,-26.57,-26.30,-47,546,-923,26.5,28.7,6.8,26.4,1.3,-31.0,5.73,2.39,-27.4,30.2
2012-08-16 02:40:00,0.0,,,,,,,,,,,1.05,-26.56,-26.43,-47,546,-923,26.5,28.8,6.9,26.4,1.4,-30.9,5.73,2.38,-27.4,30.2
2012-08-16 02:41:00,0.0,,,,,,,,,,,0.85,-25.68,-26.61,-47,546,-923,26.5,28.7,6.8,26.4,1.3,-30.9,5.73,2.38,-27.4,30.2
2012-08-16 02:42:00,0.0,,,,,,,,,,,0.87,-23.86,-26.75,-47,546,-923,26.5,28.8,6.9,26.4,1.5,-30.0,5.73,2.39,-27.5,30.2
2012-08-16 02:43:00,0.0,,,,,,,,,,,0.89,-21.91,-26.84,-47,546,-923,26.5,28.7,6.8,26.4,1.6,-29.0,5.73,2.40,-27.5,30.3
2012-08-16 02:44:00,0.0,,,,,,,,,,,0.92,-20.01,-26.89,-47,546,-923,26.5,28.7,6.8,26.4,1.7,-28.5,5.73,2.39,-27.5,30.3
2012-08-16 02:45:00,0.0,,,,,,,,,,,0.92,-18.18,-26.92,-47,546,-923,26.5,28.9,6.9,26.4,1.7,-28.4,5.73,2.38,-27.5,30.3
2012-08-16 02:46:00,0.0,,,,,,,,,,,0.93,-16.45,-26.93,-47,546,-923,26.5,29.0,7.0,26.4,1.7,-28.5,5.73,2.38,-27.5,30.3
2012-08-16 02:47:00,0.0,,,,,,,,,,,0.95,-14.81,-26.93,-47,546,-923,26.5,28.9,6.9,26.4,1.7,-28.6,5.73,2.40,-27.5,30.3
2012-08-16 02:48:00,0.0,,,,,,,,,,,0.93,-13.26,-26.94,-47,546,-923,26.5,28.8,6.9,26.4,1.6,-28.8,5.73,2.40,-27.5,30.3
2012-08-16 02:49:00,0.0,,,,,,,,,,,0.88,-11.77,-26.93,-47,545,-923,26.5,28.8,6.9,26.4,1.6,-29.0,5.73,2.39,-27.5,30.4
2012-08-16 02:50:00,0.0,,,,,,,,,,,0.88,-10.38,-26.92,-47,546,-923,26.5,28.6,6.8,26.4,1.6,-29.1,5.73,2.37,-27.5,30.4
2012-08-16 02:51:00,0.0,,,,,,,,,,,0.88,-9.05,-26.92,-47,546,-923,26.5,28.7,6.9,26.5,1.6,-29.2,5.73,2.39,-27.5,30.4
2012-08-16 02:52:00,0.0,,,,,,,,,,,0.91,-7.78,-26.91,-47,546,-923,26.5,28.7,6.8,26.5,1.6,-29.3,5.73,2.40,-27.5,30.4
2012-08-16 02:53:00,0.0,,,,,,,,,,,0.91,-6.59,-26.90,-47,546,-923,26.5,28.5,6.8,26.4,1.5,-29.4,5.73,2.39,-27.5,30.4
2012-08-16 02:54:00,0.0,,,,,,,,,,,0.92,-5.45,-26.89,-47,546,-923,26.5,28.2,6.6,26.4,1.5,-29.5,5.73,2.38,-27.4,30.3
2012-08-16 02:55:00,0.0,,,,,,,,,,,0.93,-4.36,-26.88,-47,546,-923,26.5,28.2,6.6,26.4,1.5,-29.6,5.73,2.38,-27.4,30.4
2012-08-16 02:56:00,0.0,,,,,,,,,,,0.93,-3.34,-26.87,-47,546,-923,26.5,28.4,6.7,26.5,1.5,-29.8,5.73,2.39,-27.4,30.4
2012-08-16 02:57:00,0.0,,,,,,,,,,,0.94,-2.37,-26.86,-47,546,-923,26.5,28.3,6.7,26.5,1.5,-29.7,5.73,2.40,-27.4,30.4
2012-08-16 02:58:00,0.0,,,,,,,,,,,0.94,-1.44,-26.84,-47,546,-923,26.5,28.2,6.6,26.5,1.5,-29.9,5.73,2.37,-27.4,30.4
2012-08-16 02:59:00,0.0,,,,,,,,,,,0.94,-0.57,-26.83,-47,546,-923,26.5,28.3,6.7,26.5,1.5,-29.9,5.73,2.38,-27.4,30.3
2012-08-16 03:00:00,0.0,,,,,,,,,,,0.94,0.27,-26.81,-47,546,-923,26.5,28.4,6.7,26.5,1.5,-30.1,5.73,2.40,-27.4,30.3
2012-08-16 03:01:00,0.0,,,,,,,,,,,0.94,1.06,-26.80,-47,546,-923,26.5,28.4,6.7,26.5,1.4,-30.1,5.73,2.40,-27.4,30.4
2012-08-16 03:02:00,0.0,,,,,,,,,,,0.95,1.79,-26.79,-47,546,-923,26.5,28.4,6.8,26.5,1.4,-30.2,5.73,2.37,-27.3,30.4
2012-08-16 03:03:00,0.0,,,,,,,,,,,0.93,2.46,-26.77,-47,546,-923,26.5,28.5,6.8,26.5,1.4,-30.2,5.73,2.38,-27.3,30.4
2012-08-16 03:04:00,0.0,,,,,,,,,,,0.91,2.84,-26.75,-47,546,-923,26.5,28.7,6.9,26.5,1.4,-30.3,5.73,2.40,-27.3,30.4
2012-08-16 03:05:00,0.0,,,,,,,,,,,0.93,3.02,-26.74,-47,546,-923,26.5,28.8,7.0,26.5,1.4,-30.3,5.73,2.40,-27.3,30.4
2012-08-16 03:06:00,0.0,,,,,,,,,,,0.91,3.37,-26.72,-47,546,-923,26.5,28.8,6.9,26.5,1.4,-30.3,5.73,2.38,-27.3,30.4
2012-08-16 03:07:00,0.0,,,,,,,,,,,0.92,3.75,-26.71,-47,546,-923,26.5,28.4,6.7,26.5,1.4,-30.4,5.73,2.37,-27.3,30.5
2012-08-16 03:08:00,0.0,,,,,,,,,,,0.93,4.20,-26.69,-47,546,-923,26.5,28.4,6.7,26.5,1.4,-30.5,5.73,2.39,-27.3,30.4
2012-08-16 03:09:00,0.0,,,,,,,,,,,0.90,4.66,-26.67,-47,546,-923,26.5,28.5,6.8,26.5,1.4,-30.6,5.73,2.40,-27.3,30.5
2012-08-16 03:10:00,0.0,,,,,,,,,,,0.92,5.11,-26.66,-47,546,-923,26.5,28.6,6.9,26.5,1.4,-30.6,5.73,2.38,-27.3,30.4
2012-08-16 03:11:00,0.0,,,,,,,,,,,0.92,5.58,-26.65,-47,546,-923,26.5,28.6,6.8,26.5,1.4,-30.5,5.73,2.37,-27.3,30.4
2012-08-16 03:12:00,0.0,,,,,,,,,,,0.94,6.01,-26.63,-47,546,-923,26.5,28.6,6.8,26.5,1.4,-30.6,5.73,2.39,-27.3,30.4
2012-08-16 03:13:00,0.0,,,,,,,,,,,0.92,6.54,-26.62,-47,546,-923,26.5,28.4,6.8,26.5,1.4,-30.6,5.73,2.40,-27.3,30.5
2012-08-16 03:14:00,0.0,,,,,,,,,,,0.93,7.07,-26.61,-47,546,-923,26.5,28.4,6.7,26.5,1.4,-30.5,5.73,2.38,-27.3,30.5
2012-08-16 03:15:00,0.0,,,,,,,,,,,0.92,7.52,-26.59,-47,546,-923,26.5,28.4,6.7,26.5,1.4,-30.6,5.73,2.37,-27.3,30.5
2012-08-16 03:16:00,0.0,,,,,,,,,,,0.94,7.94,-26.58,-47,546,-923,26.5,28.2,6.7,26.5,1.4,-30.5,5.73,2.39,-27.3,30.5
2012-08-16 03:17:00,0.0,,,,,,,,,,,0.93,8.35,-26.57,-47,546,-923,26.5,28.3,6.7,26.5,1.4,-30.6,5.73,2.40,-27.3,30.5
2012-08-16 03:18:00,0.0,,,,,,,,,,,0.94,8.73,-26.56,-47,546,-923,26.5,28.5,6.8,26.5,1.4,-30.5,5.73,2.37,-27.3,30.5
2012-08-16 03:19:00,0.0,,,,,,,,,,,0.95,9.10,-26.55,-47,546,-923,26.5,28.5,6.8,26.5,1.4,-30.6,5.73,2.37,-27.3,30.4
2012-08-16 03:20:00,0.0,,,,,,,,,,,0.94,9.45,-26.53,-47,546,-923,26.5,28.4,6.7,26.5,1.4,-30.5,5.73,2.39,-27.3,30.4